Wind_Speed
52 51 54 57 51 51 50 48 46 46 39 33 30 33 31 30 35 35 35 34 33 32 26 25 27 29 29 27 26 26 28 27 26 27 31 33 33 32 34 35 36 38 39 39
59 58 61 56 55 54 54 53 52 49 41 36 35 31 33 33 35 37 41 40 36 34 33 28 25 29 31 30 29 28 28 29 30 30 31 33 33 36 38 37 38 39 41 42
62 63 63 60 59 59 59 57 57 52 48 41 37 27 32 37 34 38 46 45 41 38 35 33 31 28 30 32 30 29 31 32 33 34 34 36 35 35 38 39 42 43 45 46
66 65 67 66 64 64 62 62 59 58 53 46 38 23 34 41 37 42 50 48 43 39 36 36 35 32 30 31 29 31 31 33 35 36 37 38 38 38 39 40 43 45 46 49
70 70 71 70 69 68 65 68 66 61 59 53 37 37 28 41 41 49 53 53 47 40 36 38 37 35 31 34 33 32 33 36 37 38 39 40 42 42 43 44 46 49 50 51
76 74 75 73 75 76 72 72 72 70 67 56 46 49 27 40 46 52 59 58 53 47 39 40 40 39 39 37 37 36 36 38 41 41 41 42 43 44 45 47 49 51 53 54
81 79 80 80 80 80 78 77 79 76 70 62 55 50 34 45 50 55 59 62 62 59 47 44 43 45 43 40 38 39 39 40 41 42 43 44 46 47 50 52 53 54 56 58
87 83 82 82 84 86 87 84 82 81 77 72 64 47 44 50 53 57 53 60 66 62 53 49 46 45 46 44 42 41 42 42 42 43 45 47 50 51 53 55 55 55 57 58
91 88 87 87 88 89 84 83 83 87 81 76 65 54 51 52 58 61 62 52 62 63 58 52 50 50 48 46 45 46 46 46 45 46 46 47 50 51 53 55 56 56 58 59
96 93 91 90 91 89 87 86 87 87 86 83 70 62 57 58 60 63 66 64 59 60 57 54 55 55 52 50 49 49 48 48 49 49 49 49 51 51 53 54 57 59 58 59
99 98 93 93 91 91 93 90 89 89 90 88 83 71 66 61 61 65 65 64 66 63 63 61 59 56 54 52 52 53 53 52 52 51 50 50 50 51 52 53 55 58 60 62
106 106 101 97 97 97 97 92 93 95 93 94 92 73 65 66 70 68 71 70 69 68 71 71 67 62 58 55 56 57 57 56 56 57 54 56 54 54 55 56 58 60 61 64
109 112 108 105 101 98 97 97 99 101 101 97 93 73 62 72 72 70 72 73 72 72 72 74 74 69 65 59 58 60 61 61 60 60 60 59 60 61 61 62 64 63 64 67
113 116 112 107 104 105 103 102 104 105 105 90 97 77 70 68 69 71 73 77 77 77 80 75 73 74 71 66 63 63 65 66 65 64 65 66 67 67 67 68 68 69 70 71
123 120 114 110 109 111 110 108 108 109 100 105 90 92 68 74 75 76 78 82 88 85 79 76 73 73 73 71 69 68 70 72 73 70 70 71 72 71 71 73 74 75 77 78
127 125 124 120 114 115 116 115 110 107 104 105 95 93 77 81 83 82 80 88 87 85 82 80 80 79 77 76 75 75 76 75 73 73 74 75 75 76 76 77 78 79 81 83
125 124 127 128 118 123 128 114 108 110 109 107 106 92 92 90 88 88 93 94 90 90 91 88 86 83 81 79 78 79 78 76 76 78 81 82 83 85 84 83 83 85 86 86
112 115 121 128 124 134 119 117 114 113 111 108 109 103 96 95 96 96 96 96 97 96 93 90 87 85 83 82 82 82 82 84 84 83 84 86 89 90 91 92 90 90 89 89
123 125 124 125 116 118 119 113 111 117 116 114 117 110 105 105 108 101 101 104 100 99 98 97 94 90 88 88 87 88 88 88 88 89 91 93 93 94 95 94 92 91 89 88
129 130 131 128 128 123 108 94 101 111 119 99 107 104 104 107 112 104 112 110 108 105 103 100 99 96 96 95 95 94 93 94 94 94 96 97 97 96 98 99 98 92 91 91
130 130 133 130 133 128 107 102 107 118 104 98 107 106 102 101 100 99 99 100 102 100 95 94 93 92 92 92 93 92 92 91 91 93 93 95 95 94 94 92 95 93 92 94
129 132 131 133 134 134 118 117 121 122 120 114 108 109 109 108 107 103 100 96 94 93 92 90 87 87 87 87 86 87 89 87 89 89 90 90 91 93 94 95 94 97 99 100
130 133 133 133 135 127 122 124 126 127 126 123 120 119 116 115 114 113 110 106 104 99 98 97 95 93 92 92 92 90 89 88 89 93 94 96 97 99 98 102 105 105 110 111
121 123 131 132 126 126 127 129 127 129 131 132 127 123 122 120 119 118 117 118 114 112 110 108 106 102 101 103 103 103 103 104 103 101 102 108 108 107 110 112 114 116 117 119
116 119 118 117 119 125 128 131 131 132 133 132 130 127 126 126 125 122 121 120 118 117 116 115 115 114 113 112 113 112 113 113 111 113 114 114 114 116 117 120 121 124 124 123
113 112 117 112 117 117 115 123 132 135 137 134 135 128 123 125 126 125 126 125 124 123 120 117 116 117 118 117 117 117 119 119 118 120 119 119 121 122 124 122 122 123 122 121
Wind_Direction
246 249 251 255 261 261 261 262 262 262 265 266 267 274 278 280 285 288 286 284 287 290 289 282 281 283 284 284 279 275 273 278 279 281 280 283 284 287 288 289 290 289 287 287
247 250 251 255 257 258 260 261 263 264 264 263 265 268 274 277 278 282 283 282 285 287 288 290 288 287 288 287 287 289 285 280 277 275 275 278 282 285 287 287 287 287 285 284
245 246 250 253 255 255 257 259 262 264 262 260 261 267 279 277 275 279 278 281 283 284 289 293 294 291 291 293 294 291 287 285 283 282 282 283 283 282 282 283 282 282 283 283
246 247 248 250 253 254 257 259 261 261 259 257 258 255 274 277 280 276 275 279 281 282 287 288 287 291 295 294 292 292 289 286 284 282 282 281 281 281 283 283 282 282 282 284
244 246 248 251 251 255 255 257 259 259 259 257 261 254 256 277 277 274 277 278 280 287 289 287 291 293 290 288 285 283 284 284 285 285 284 285 285 285 286 284 284 285 285 284
244 245 248 248 251 255 254 256 259 260 259 259 257 258 251 258 270 271 274 281 285 286 288 291 295 297 294 290 289 288 287 286 284 285 284 285 285 287 287 287 287 286 286 286
244 244 245 248 251 253 256 255 256 258 263 264 258 257 260 258 255 264 274 278 283 286 292 292 294 295 294 293 290 288 286 285 285 286 286 286 288 289 289 287 286 286 287 287
245 245 247 249 251 253 254 256 260 262 261 263 264 260 261 259 253 258 260 274 278 283 288 287 285 288 288 289 288 288 287 287 290 289 287 288 288 289 288 286 286 287 287 288
247 247 247 248 250 254 256 259 260 262 262 262 261 259 258 258 251 256 263 260 270 278 280 281 283 283 283 284 285 288 291 291 291 290 291 290 290 291 290 290 289 289 289 290
248 247 249 250 252 254 258 258 259 263 264 263 258 256 261 258 258 252 261 271 273 273 274 277 279 281 282 281 284 286 287 288 286 288 288 288 287 287 287 288 288 288 290 292
247 248 247 249 252 254 256 256 259 261 262 264 261 258 257 259 261 261 262 265 272 276 278 279 282 281 282 284 282 284 285 286 286 291 288 288 291 289 288 288 289 290 291 292
247 248 248 247 246 247 250 251 253 254 257 258 259 257 264 265 266 264 263 265 269 277 282 282 283 280 280 283 282 282 285 286 290 288 285 286 288 291 292 292 292 294 296 295
248 248 247 246 249 252 254 256 257 257 257 257 261 263 268 265 265 266 268 270 272 274 275 279 282 284 285 283 279 281 285 285 287 286 285 284 285 288 290 291 293 292 294 295
249 249 250 249 250 250 253 254 256 258 260 264 264 267 269 268 267 268 267 268 270 272 276 279 281 284 283 282 283 283 283 282 281 282 282 282 283 284 286 288 289 289 289 289
249 250 252 252 253 253 253 254 256 258 261 263 264 267 267 267 266 266 268 272 275 277 277 278 277 277 280 281 282 279 278 279 281 283 282 281 282 282 283 286 286 286 287 288
248 250 252 251 254 256 256 255 257 261 263 264 265 264 268 265 265 269 271 271 271 274 276 275 276 277 279 280 278 279 280 282 282 282 282 282 282 283 283 284 284 285 287 289
249 251 252 252 252 255 256 259 261 261 262 265 265 266 266 269 267 264 266 269 271 271 271 273 275 277 279 278 277 278 280 278 279 279 279 280 281 283 285 286 286 287 288 289
256 255 255 255 253 254 257 256 259 263 263 264 265 264 263 265 266 267 267 267 268 270 272 274 275 276 275 275 276 277 276 277 278 278 277 279 281 283 284 285 285 287 286 287
258 260 260 260 259 259 257 256 257 260 260 261 265 266 265 263 264 265 266 266 268 271 273 274 274 275 275 276 276 276 276 278 278 278 278 279 281 282 282 283 284 286 286 287
252 256 258 261 263 264 262 261 261 260 259 263 267 267 265 264 263 264 262 266 270 271 272 273 272 272 274 276 275 274 275 277 276 276 277 279 281 279 279 279 280 284 283 284
254 255 255 259 262 266 267 267 265 264 268 265 267 268 268 269 268 266 266 264 266 269 270 273 273 273 272 273 274 274 274 275 275 276 276 276 276 277 278 279 280 282 284 284
252 254 255 256 256 260 265 265 265 267 267 268 269 270 270 270 270 271 270 269 269 271 271 273 273 272 270 270 270 270 270 272 272 273 275 278 279 280 281 283 284 287 290 290
251 252 253 254 256 259 260 261 263 263 264 264 264 268 271 274 275 275 276 278 278 277 277 278 277 278 278 278 276 275 276 279 278 282 282 284 285 285 286 291 292 293 293 293
253 251 253 255 256 258 260 259 260 261 261 262 264 266 267 269 270 272 275 278 279 280 280 281 282 282 283 284 286 286 286 286 287 287 287 288 289 290 291 290 288 289 289 289
251 252 253 255 255 254 255 258 261 261 262 263 263 265 264 265 266 266 267 269 271 274 276 277 278 279 281 281 281 283 284 285 285 284 285 286 287 287 286 287 286 285 286 287
251 251 252 252 253 253 253 254 256 259 262 265 267 267 265 264 266 268 269 270 270 270 270 271 273 274 274 275 276 277 278 280 280 281 283 284 283 284 285 285 285 285 285 286
Height
10728 10733 10731 10732 10744 10744 10745 10746 10747 10750 10759 10764 10765 10763 10766 10767 10763 10764 10764 10764 10766 10766 10769 10770 10769 10769 10769 10770 10770 10769 10768 10767 10767 10766 10765 10764 10763 10762 10761 10760 10759 10758 10756 10755
10719 10724 10716 10728 10731 10732 10733 10735 10734 10740 10750 10757 10757 10759 10759 10761 10759 10757 10755 10755 10759 10760 10761 10764 10765 10763 10762 10762 10762 10762 10762 10760 10758 10758 10757 10756 10756 10754 10753 10752 10751 10750 10747 10746
10707 10710 10709 10714 10718 10718 10720 10723 10723 10731 10736 10746 10749 10757 10752 10750 10754 10752 10745 10747 10750 10753 10755 10755 10756 10756 10754 10753 10754 10754 10752 10751 10750 10748 10748 10746 10746 10745 10744 10743 10741 10740 10738 10736
10696 10700 10695 10698 10704 10705 10710 10711 10714 10717 10722 10732 10743 10755 10746 10739 10745 10741 10734 10736 10740 10744 10749 10748 10747 10749 10749 10746 10745 10744 10743 10742 10740 10738 10738 10737 10736 10735 10734 10733 10730 10728 10727 10724
10683 10682 10686 10688 10690 10691 10699 10696 10699 10704 10708 10719 10738 10739 10749 10735 10733 10727 10723 10722 10727 10734 10739 10738 10739 10740 10741 10739 10737 10736 10734 10732 10730 10729 10728 10727 10725 10724 10723 10722 10719 10716 10714 10712
10666 10671 10671 10676 10674 10674 10683 10684 10685 10688 10693 10711 10724 10721 10748 10736 10727 10718 10711 10710 10715 10720 10727 10728 10729 10729 10727 10728 10727 10726 10725 10723 10720 10719 10718 10716 10714 10713 10712 10709 10707 10704 10701 10699
10648 10654 10656 10658 10661 10661 10665 10669 10667 10672 10684 10699 10707 10714 10737 10724 10721 10713 10706 10701 10699 10703 10715 10717 10718 10718 10718 10718 10717 10715 10713 10711 10709 10708 10707 10705 10702 10700 10698 10695 10693 10690 10687 10684
10629 10637 10643 10647 10645 10642 10643 10653 10658 10661 10668 10678 10689 10714 10720 10709 10709 10706 10708 10698 10689 10693 10702 10705 10707 10709 10708 10706 10705 10703 10702 10700 10699 10697 10694 10692 10689 10687 10684 10682 10679 10676 10671 10669
10612 10618 10624 10627 10627 10625 10638 10641 10643 10636 10652 10660 10678 10693 10703 10697 10692 10690 10691 10697 10687 10686 10690 10693 10696 10696 10697 10696 10694 10692 10690 10688 10685 10683 10680 10678 10676 10674 10670 10667 10664 10661 10657 10654
10588 10599 10607 10610 10611 10615 10621 10626 10624 10624 10628 10635 10660 10675 10685 10679 10678 10678 10677 10678 10679 10675 10678 10681 10682 10681 10682 10684 10683 10681 10678 10676 10673 10671 10668 10666 10663 10660 10656 10654 10650 10647 10644 10640
10566 10573 10590 10590 10598 10599 10594 10606 10610 10610 10611 10618 10632 10656 10663 10666 10664 10661 10663 10663 10660 10660 10662 10664 10665 10667 10668 10671 10669 10667 10664 10661 10660 10659 10656 10653 10650 10647 10643 10639 10635 10631 10629 10624
10546 10547 10563 10572 10573 10576 10579 10587 10588 10586 10593 10590 10601 10646 10652 10650 10649 10646 10642 10646 10644 10647 10644 10642 10646 10647 10652 10655 10653 10650 10649 10647 10645 10642 10640 10637 10634 10631 10626 10623 10619 10616 10612 10608
10523 10518 10533 10547 10558 10568 10570 10573 10569 10567 10566 10577 10591 10634 10638 10631 10632 10627 10625 10625 10629 10632 10630 10627 10626 10630 10634 10636 10636 10634 10633 10631 10628 10626 10623 10619 10616 10613 10609 10606 10602 10598 10594 10590
10495 10498 10512 10530 10540 10540 10545 10550 10549 10547 10549 10590 10570 10611 10617 10615 10613 10609 10606 10606 10610 10611 10611 10615 10614 10609 10610 10616 10619 10619 10615 10611 10609 10608 10605 10601 10598 10595 10592 10588 10584 10581 10576 10572
10471 10475 10490 10508 10513 10515 10527 10529 10527 10529 10556 10544 10582 10572 10616 10590 10588 10590 10589 10585 10585 10588 10593 10598 10598 10597 10596 10598 10598 10597 10595 10592 10590 10590 10586 10581 10578 10575 10573 10569 10565 10561 10557 10552
10452 10456 10463 10483 10493 10490 10491 10500 10516 10529 10537 10528 10554 10557 10590 10568 10569 10570 10570 10563 10564 10568 10572 10573 10574 10578 10581 10582 10580 10578 10575 10573 10571 10568 10565 10562 10557 10554 10552 10548 10544 10541 10536 10531
10434 10436 10442 10450 10480 10460 10445 10497 10507 10500 10512 10518 10519 10553 10547 10550 10542 10543 10544 10542 10545 10546 10544 10549 10554 10558 10560 10560 10560 10558 10558 10555 10552 10550 10545 10541 10537 10534 10530 10526 10522 10518 10515 10509
10415 10414 10417 10420 10442 10413 10464 10479 10480 10481 10490 10492 10493 10512 10523 10521 10511 10522 10524 10519 10518 10517 10525 10529 10533 10536 10536 10538 10538 10537 10535 10533 10531 10529 10525 10520 10516 10514 10509 10504 10499 10494 10490 10485
10383 10383 10385 10385 10405 10407 10416 10464 10471 10453 10457 10461 10461 10483 10497 10490 10484 10503 10490 10486 10494 10499 10504 10509 10510 10512 10514 10514 10514 10514 10513 10510 10508 10505 10501 10496 10492 10489 10484 10479 10474 10470 10465 10459
10357 10355 10352 10360 10361 10369 10408 10446 10431 10416 10402 10469 10442 10447 10454 10447 10450 10478 10460 10466 10470 10474 10478 10480 10483 10487 10488 10489 10488 10486 10486 10485 10482 10478 10474 10470 10466 10462 10457 10452 10448 10444 10441 10435
10331 10333 10327 10340 10334 10342 10387 10408 10399 10371 10406 10427 10409 10413 10419 10420 10423 10435 10442 10445 10444 10449 10454 10457 10459 10460 10458 10458 10458 10458 10458 10456 10452 10448 10445 10441 10438 10434 10429 10425 10421 10417 10413 10408
10305 10305 10311 10311 10314 10318 10362 10365 10359 10360 10362 10379 10387 10390 10391 10393 10395 10400 10410 10418 10423 10422 10426 10430 10431 10431 10430 10430 10431 10430 10428 10427 10425 10422 10419 10414 10409 10404 10400 10397 10393 10389 10383 10377
10270 10278 10280 10286 10287 10306 10327 10330 10333 10333 10339 10349 10356 10359 10364 10368 10369 10371 10378 10387 10391 10395 10396 10398 10398 10398 10399 10399 10399 10398 10398 10397 10395 10393 10388 10383 10379 10376 10372 10366 10361 10355 10350 10345
10241 10254 10249 10256 10280 10286 10291 10298 10307 10305 10307 10313 10325 10335 10341 10345 10348 10349 10352 10352 10356 10358 10362 10365 10366 10367 10367 10366 10364 10364 10365 10363 10361 10358 10354 10352 10349 10346 10342 10338 10333 10328 10322 10317
10217 10219 10228 10237 10253 10258 10271 10268 10267 10268 10271 10281 10293 10304 10312 10317 10323 10328 10330 10331 10333 10334 10336 10336 10337 10338 10338 10337 10336 10335 10333 10332 10331 10328 10325 10323 10321 10317 10312 10308 10302 10296 10290 10283
10185 10197 10194 10214 10217 10221 10243 10245 10240 10241 10243 10249 10253 10262 10277 10286 10288 10293 10294 10296 10300 10305 10310 10312 10313 10312 10312 10311 10310 10309 10305 10303 10301 10298 10295 10293 10290 10284 10279 10273 10267 10261 10256 10249